[[{"header":{"parameterUnit":"m.s-1","parameterCategory":1,"la1":30.2991,"la2":30.254,"lo1":-89.0895,"lo2":-89.0444,"dy":0.0017,"dx":0.0017,"nx":28,"ny":28,"refTime":"2024-12-24T03:00:00:Z","depth":0,"parameterNumber":2,"parameterNumberName":"U-component_of_WINDS"},"data":[0,0,0,0,0,0,0,0,0,0,0,0,0,0,0,0,0,0,0,0,0,0,0,0,0,0,0,0,0,0,0,0,0,0,0,0,0,0,0,0,0,0,0,0,0,0,0,0,0,0,0,0,0,0,0,0,0,0,-6.4343,-6.4343,0,-6.4345,-6.4345,-6.4345,-6.4179,-6.4175,-6.417,-6.4166,-6.4169,-6.4173,-6.4177,0,0,0,0,0,0,0,0,0,0,0,0,0,-6.42,-6.4204,-6.4343,-6.4343,-6.4343,-6.4345,-6.4345,-6.4345,-6.418,-6.4175,-6.4169,-6.4164,-6.4168,-6.4172,-6.4177,0,0,0,0,0,0,0,0,0,0,0,0,0,-6.4238,-6.4205,-6.4343,-6.4261,-6.4254,-6.4345,-6.4345,-6.4345,-6.4181,-6.4175,-6.4168,-6.4162,-6.4166,-6.4172,-6.4178,-6.4347,0,0,-6.4197,-6.42,0,0,0,0,0,0,0,0,-6.4236,-6.4244,-6.4273,-6.4267,-6.4259,-6.4255,-6.4295,-6.4346,-6.4183,-6.4209,-6.4166,-6.4159,-6.4203,-6.4206,-6.422,-6.4348,-6.4348,-6.4198,-6.4201,-6.4204,-6.4206,0,0,0,0,0,0,0,-6.4234,-6.4243,-6.4344,-6.4274,-6.4265,-6.4225,-6.4223,-6.4304,-6.4243,-6.4206,-6.4194,-6.4196,-6.4198,-6.4215,-6.4219,-6.4348,-6.4197,-6.4203,-6.4207,-6.4209,-6.4615,-6.4621,0,0,0,0,0,0,-6.4242,-6.4242,-6.4344,-6.4344,-6.4231,-6.4233,-6.4231,-6.4263,-6.4241,-6.4232,-6.4202,-6.4189,-6.4207,-6.4212,-6.4219,-6.4415,-6.4204,-6.421,-6.4213,-6.4608,-6.4616,-6.4624,0,0,0,0,0,0,-6.424,-6.4253,-6.4344,-6.429,-6.4298,-6.4242,-6.428,-6.4267,-6.4283,-6.4238,-6.4227,-6.423,-6.4202,-6.421,-6.4317,-6.4413,-6.4213,-6.4218,-6.4599,-6.461,-6.462,-6.4811,0,0,0,0,0,0,-6.4236,-6.4253,-6.4316,-6.4292,-6.4302,-6.4442,-6.4286,-6.4271,-6.4294,-6.4277,-6.4262,-6.4253,-6.4198,-6.4308,-6.4323,-6.4418,-6.4223,-6.459,-6.4604,-6.4617,-6.4796,-6.4827,-6.4853,0,0,0,0,0,-6.4232,-6.437,-6.432,-6.4334,-6.4379,-6.4448,-6.4453,-6.4386,-6.4303,-6.4366,-6.4337,-6.4254,-6.4401,-6.4321,-6.4336,-6.4434,-6.4584,-6.46,-6.4616,-6.4783,-6.4821,-6.4852,0,0,0,0,0,0,-6.4407,-6.4365,-6.431,-6.4444,-6.4451,-6.442,-6.4497,-6.4428,-6.4459,-6.4441,-6.4358,-6.4356,-6.4476,-6.4466,-6.4377,-6.4597,-6.4478,-6.4497,-6.4599,-6.4635,-6.4663,-6.4663,-6.4228,0,0,0,0,0,-6.4461,-6.452,-6.448,-6.4603,-6.4609,-6.4554,-6.4581,-6.4529,-6.4532,-6.4534,-6.4513,-6.452,-6.4568,-6.4601,-6.4642,-6.4794,-6.4788,-6.4869,-6.4898,-6.4922,-6.4939,-6.5019,-6.5055,-6.4676,-6.4676,-6.4676,0,0,-6.4574,-6.4558,-6.46,-6.4638,-6.4636,-6.47,-6.4557,-6.4629,-6.4675,-6.4545,-6.4644,-6.463,-6.4632,-6.4763,-6.4819,-6.4758,-6.5043,-6.4942,-6.4961,-6.4966,-6.5039,-6.5075,-6.5107,-6.4687,-6.4685,-6.4683,0,0,-6.481,-6.4805,-6.4906,-6.4909,-6.4909,-6.4871,-6.4896,-6.4876,-6.4861,-6.496,-6.4864,-6.4918,-6.5002,-6.5008,-6.5022,-6.5264,-6.5188,-6.528,-6.5429,-6.5508,-6.5538,-6.5564,-6.565,-6.5682,-6.5298,-6.5298,-6.5298,0,-6.495,-6.504,-6.4967,-6.5046,-6.5066,-6.4952,-6.5054,-6.506,-6.5075,-6.5091,-6.5023,-6.5126,-6.512,-6.525,-6.5309,-6.5324,-6.535,-6.528,-6.5539,-6.5565,-6.5588,-6.5669,-6.5701,-6.5309,-6.5308,-6.5307,-6.5306,0,-6.5212,-6.5277,-6.5359,-6.5376,-6.5405,-6.5495,-6.5436,-6.5475,-6.5422,-6.5392,-6.5494,-6.5483,-6.552,-6.5547,-6.5496,-6.5671,-6.5633,-6.5554,-6.5431,-6.5636,-6.5711,-6.5741,-6.5325,-6.5321,-6.5318,-6.5315,0,0,-6.5557,-6.5534,-6.5565,-6.5571,-6.5565,-6.5613,-6.57,-6.5736,-6.577,-6.5785,-6.5855,-6.593,-6.5857,-6.5873,-6.5821,-6.5891,-6.6083,-6.5802,-6.5801,-6.5854,-6.6275,-6.6334,-6.6371,-6.6034,-6.6039,-6.6044,-6.6275,0,-6.5786,-6.5931,-6.5868,-6.602,-6.6079,-6.5973,-6.6048,-6.6052,-6.6027,-6.6074,-6.6046,-6.6101,-6.6,-6.6009,-6.6073,-6.6046,-6.6166,-6.6029,-6.6098,-6.6101,-6.6099,-6.641,-6.6472,-6.6691,-6.6304,-6.6308,-6.6312,0,-6.6072,-6.6098,-6.6256,-6.6239,-6.6262,-6.633,-6.6359,-6.6405,-6.6409,-6.6386,-6.6406,-6.6339,-6.6423,-6.6303,-6.6418,-6.6326,-6.6351,-6.6342,-6.6349,-6.6351,-6.6218,-6.642,-6.6759,-6.6792,-6.6357,-6.6354,-6.6351,0,-6.6307,-6.6382,-6.6486,-6.6495,-6.6479,-6.6529,-6.6525,-6.6522,-6.6549,-6.6574,-6.6591,-6.6627,-6.6646,-6.6676,-6.6621,-6.6539,-6.6744,-6.6619,-6.6727,-6.6729,-6.6773,-6.6771,-6.712,-6.6792,-6.6792,-6.6791,-6.6791,0,-6.6568,-6.6668,-6.6591,-6.6655,-6.6765,-6.6693,-6.6804,-6.6788,-6.6787,-6.6846,-6.6757,-6.6815,-6.6739,-6.679,-6.6748,-6.685,-6.686,-6.6843,-6.6831,-6.6851,-6.6853,-6.6864,-6.6847,-6.68,-6.6798,-6.6796,-6.6795,0,-6.6848,-6.68,-6.6906,-6.6883,-6.688,-6.6962,-6.6941,-6.7,-6.6969,-6.7046,-6.706,-6.7012,-6.7068,-6.7016,-6.7069,-6.7041,-6.7176,-6.7142,-6.7175,-6.7165,-6.7275,-6.7265,-6.7643,-6.7688,-6.7334,-6.7337,-6.734,0,-6.7017,-6.7091,-6.7076,-6.711,-6.7111,-6.7166,-6.7192,-6.7126,-6.7157,-6.7168,-6.7226,-6.7274,-6.7308,-6.7402,-6.7372,-6.7412,-6.7378,-6.7508,-6.7383,-6.7401,-6.7379,-6.7374,-6.7381,-6.7532,-6.7536,-6.754,-6.7543,0,-6.7322,-6.7295,-6.7336,-6.7371,-6.7405,-6.7429,-6.7446,-6.7479,-6.741,-6.745,-6.7506,-6.7533,-6.7587,-6.7636,-6.7667,-6.7663,-6.7592,-6.7583,-6.7609,-6.7629,-6.7645,-6.7637,-6.7242,-6.7574,-6.757,-6.7568,-6.7567,-6.7565,-6.755,-6.7611,-6.7611,-6.766,-6.7667,-6.7685,-6.7739,-6.7716,-6.7761,-6.7799,-6.7758,-6.7826,-6.7829,-6.7864,-6.7868,-6.7921,-6.7866,-6.7906,-6.7915,-6.7925,-6.7941,-6.7638,-6.7926,-6.7925,-6.7925,-6.7924,-6.7923,0,-6.7849,-6.7844,-6.789,-6.7917,-6.7957,-6.7888,-6.7903,-6.7941,-6.8002,-6.8011,-6.8047,-6.8111,-6.8159,-6.8134,-6.8175,-6.8222,-6.8191,-6.8235,-6.823,-6.823,-6.7988,-6.796,-6.826,-6.826,-6.826,-6.8259,-6.8259,-6.8259,-6.8009,-6.8109,-6.8083,-6.8187,-6.818,-6.8246,-6.8261,-6.8278,-6.8284,-6.836,-6.8399,-6.8383,-6.8379,-6.8419,-6.846,-6.8451,-6.847,-6.8526,-6.8507,-6.828,-6.8247,-6.8215,-6.8189,-6.8531,-6.8532,-6.8744,-6.8746,-6.8747]},{"header":{"parameterUnit":"m.s-1","parameterCategory":1,"la1":30.2991,"la2":30.254,"lo1":-89.0895,"lo2":-89.0444,"dy":0.0017,"dx":0.0017,"nx":28,"ny":28,"refTime":"2024-12-24T03:00:00:Z","depth":0,"parameterNumber":3,"parameterNumberName":"V-component_of_WINDS"},"data":[0,0,0,0,0,0,0,0,0,0,0,0,0,0,0,0,0,0,0,0,0,0,0,0,0,0,0,0,0,0,0,0,0,0,0,0,0,0,0,0,0,0,0,0,0,0,0,0,0,0,0,0,0,0,0,0,0,0,0.0733,0.0733,0,0.0731,0.0731,0.0731,0.078,0.0782,0.0783,0.0784,0.0778,0.0777,0.0775,0,0,0,0,0,0,0,0,0,0,0,0,0,0.0777,0.0776,0.0733,0.0733,0.0733,0.0731,0.0731,0.0731,0.078,0.0782,0.0783,0.0785,0.0779,0.0777,0.0775,0,0,0,0,0,0,0,0,0,0,0,0,0,0.0765,0.0776,0.0733,0.0757,0.0759,0.0731,0.0731,0.0731,0.078,0.0782,0.0784,0.0786,0.0779,0.0777,0.0775,0.0722,0,0,0.0769,0.0768,0,0,0,0,0,0,0,0,0.0765,0.0763,0.0754,0.0756,0.0758,0.0758,0.0745,0.0728,0.0779,0.0772,0.0784,0.0787,0.077,0.0768,0.0764,0.0722,0.0722,0.0768,0.0767,0.0766,0.0766,0,0,0,0,0,0,0,0.0766,0.0763,0.0732,0.0753,0.0756,0.0768,0.0768,0.0742,0.0759,0.0773,0.0776,0.0776,0.0771,0.0765,0.0764,0.0722,0.0769,0.0767,0.0765,0.0765,0.0639,0.0637,0,0,0,0,0,0,0.0764,0.0764,0.0732,0.0732,0.0767,0.0765,0.0766,0.0756,0.076,0.0763,0.0774,0.0778,0.0768,0.0766,0.0764,0.0704,0.0766,0.0764,0.0763,0.0641,0.0639,0.0637,0,0,0,0,0,0,0.0765,0.0761,0.0732,0.0749,0.0746,0.0763,0.0751,0.0755,0.0749,0.0761,0.0764,0.0765,0.077,0.0767,0.0733,0.0704,0.0763,0.0761,0.0644,0.0641,0.0638,0.0582,0,0,0,0,0,0,0.0766,0.0761,0.0741,0.0748,0.0745,0.0702,0.0749,0.0753,0.0746,0.0751,0.0753,0.0756,0.0771,0.0736,0.0731,0.0702,0.076,0.0647,0.0642,0.0639,0.0587,0.0578,0.057,0,0,0,0,0,0.0767,0.0724,0.074,0.0736,0.0721,0.07,0.0698,0.0718,0.0744,0.0724,0.0732,0.0756,0.0709,0.0732,0.0727,0.0697,0.0648,0.0644,0.0639,0.0591,0.058,0.057,0,0,0,0,0,0,0.071,0.0725,0.0743,0.07,0.0699,0.0709,0.0684,0.0705,0.0695,0.07,0.0724,0.0724,0.0687,0.0689,0.0715,0.0648,0.0683,0.0677,0.0648,0.0637,0.0629,0.0629,0.0758,0,0,0,0,0,0.0693,0.0676,0.069,0.0651,0.065,0.0667,0.0658,0.0674,0.0673,0.0672,0.0677,0.0674,0.066,0.0649,0.0635,0.0588,0.059,0.0565,0.0557,0.055,0.0544,0.0521,0.0511,0.0622,0.0622,0.0622,0,0,0.0657,0.0663,0.065,0.064,0.064,0.0622,0.0666,0.0643,0.063,0.0668,0.0638,0.0642,0.064,0.06,0.0583,0.06,0.0514,0.0544,0.0538,0.0536,0.0515,0.0505,0.0496,0.0618,0.0619,0.0619,0,0,0.0581,0.0584,0.0553,0.0554,0.0555,0.0568,0.0561,0.0568,0.0573,0.0543,0.0572,0.0556,0.0529,0.0527,0.0523,0.0451,0.0473,0.0446,0.0401,0.0379,0.037,0.0362,0.0338,0.0328,0.044,0.044,0.044,0,0.0535,0.0509,0.0534,0.0511,0.0506,0.0543,0.0512,0.0511,0.0507,0.0503,0.0524,0.0493,0.0494,0.0455,0.0438,0.0433,0.0426,0.0445,0.037,0.0362,0.0355,0.0332,0.0322,0.0437,0.0437,0.0437,0.0438,0,0.0453,0.0435,0.041,0.0409,0.0401,0.0374,0.0395,0.0384,0.0401,0.0412,0.0382,0.0386,0.0375,0.0367,0.0382,0.0331,0.0342,0.0366,0.0401,0.0341,0.032,0.0311,0.0432,0.0433,0.0434,0.0435,0,0,0.0339,0.0354,0.0345,0.0346,0.0352,0.0338,0.0313,0.0305,0.0296,0.0293,0.0273,0.0251,0.0274,0.0269,0.0285,0.0265,0.021,0.0292,0.0292,0.0277,0.0155,0.0137,0.0126,0.0225,0.0224,0.0222,0.0155,0,0.0266,0.0227,0.025,0.0206,0.0191,0.0227,0.0206,0.0207,0.0217,0.0205,0.0215,0.02,0.0231,0.0229,0.0211,0.022,0.0186,0.0226,0.0207,0.0206,0.0206,0.0115,0.0095,0.0032,0.0147,0.0146,0.0145,0,0.0175,0.0172,0.0127,0.014,0.0134,0.0114,0.011,0.0098,0.0101,0.0109,0.0106,0.0128,0.0105,0.0141,0.011,0.0137,0.0131,0.0135,0.0133,0.0131,0.0171,0.0111,0.0012,0.0002,0.0131,0.0132,0.0133,0,0.0098,0.0081,0.0053,0.0053,0.0066,0.0052,0.0056,0.0061,0.0056,0.0052,0.0048,0.0041,0.0036,0.003,0.005,0.0074,0.0016,0.0054,0.0023,0.0022,0.0008,0.0008,-0.0094,0.0004,0.0004,0.0004,0.0005,0,0.0014,-0.0015,0.0019,0.0002,-0.0029,-0.0001,-0.0032,-0.0024,-0.0019,-0.0034,-0.0003,-0.0018,0.0009,-0.0004,0.0012,-0.0016,-0.0018,-0.0012,-0.0008,-0.0015,-0.0015,-0.0019,-0.0014,0.0002,0.0003,0.0003,0.0003,0,-0.0079,-0.0058,-0.0085,-0.0069,-0.0066,-0.0089,-0.0075,-0.0091,-0.0077,-0.0097,-0.01,-0.0079,-0.0092,-0.0072,-0.0084,-0.0073,-0.011,-0.01,-0.0111,-0.0108,-0.014,-0.0137,-0.0248,-0.0261,-0.0155,-0.0156,-0.0157,0,-0.0134,-0.0154,-0.0139,-0.0146,-0.0143,-0.0155,-0.0159,-0.0132,-0.0138,-0.0134,-0.015,-0.0159,-0.0165,-0.0187,-0.0174,-0.0181,-0.017,-0.0208,-0.0172,-0.0177,-0.017,-0.0169,-0.0171,-0.0217,-0.0218,-0.0219,-0.022,0,-0.0233,-0.0221,-0.0228,-0.0231,-0.0236,-0.0238,-0.0237,-0.0245,-0.0216,-0.0224,-0.0235,-0.024,-0.0249,-0.0258,-0.0262,-0.0258,-0.0234,-0.0231,-0.0238,-0.0246,-0.0252,-0.0248,-0.0132,-0.0229,-0.0228,-0.0227,-0.0227,-0.0227,-0.0309,-0.0324,-0.0315,-0.0323,-0.0319,-0.0318,-0.0331,-0.0318,-0.0326,-0.033,-0.0313,-0.0328,-0.0322,-0.0324,-0.0322,-0.0333,-0.0316,-0.0328,-0.0331,-0.0334,-0.0338,-0.0249,-0.0334,-0.0334,-0.0333,-0.0333,-0.0333,0,-0.0406,-0.0397,-0.0405,-0.0403,-0.0409,-0.0384,-0.0381,-0.0388,-0.04,-0.0396,-0.0401,-0.0413,-0.0421,-0.0407,-0.0413,-0.0424,-0.0413,-0.0427,-0.0426,-0.0425,-0.0353,-0.0346,-0.0435,-0.0435,-0.0435,-0.0435,-0.0435,-0.0435,-0.0457,-0.0481,-0.0467,-0.0489,-0.048,-0.0492,-0.0493,-0.0491,-0.0487,-0.0501,-0.0507,-0.0497,-0.0488,-0.0492,-0.0499,-0.0494,-0.0498,-0.0515,-0.0507,-0.044,-0.043,-0.0421,-0.0414,-0.0516,-0.0516,-0.0577,-0.0578,-0.0578]}]]